Погода Октябрьский Городок

Погода Октябрьский Городок : погода сейчас, прогноз погоды и архив. Всё, что Вы хотите узнать о погоде Октябрьский Городок!

Поиск расширенной информации на нашем сайте:

Другие новости

Новости СМИ2

Главная страница сайта

Новости сайта

03.07.2017

Напоминаем, что на нашем специализированном сайте Метеоцентр.Азия вы можете получить высокодетализированные автоматические прогнозы погоды по пунктам России, СНГ и мира в авиационном формате (включающие направление и скорость ветра, видимость, явления погоды, количество и форму облачности, нижнюю и верхнюю границу облачности).


Погода Октябрьский Городок - сегодня

Время (UTC), дата Ветер
(°,м/с) 
Видим.   Явления Облачность Т
(°С)
Тd
(°С)
f(%) Тe
(°С)
Pmin
(гПа)
dP
(гПа)
Po
(мм)
O2
(г/м3)
Тmin Tmax R s Состояние
почвы
18 14.08.18 360 (С) 20000 м    ясно 
+18.5 +10.4 59 +21  1016.8  1.5  745  279           
21 14.08.18 240 (ЮЗ) 20000 м    ясно 
+13.9 +10.7 81 +17  1018  0.9  745  284           
00 15.08.18 270 (З) 20000 м    ясно 
+10.7 +10.3 97 +14  1019.2  0.9  746  287           
03 15.08.18 тихо ()   20000 м    3/0 верхняя 
[Ci fib]
+10.8 +9.6 92 +12  1020.1  0.9  747  288  +9.4        сухая 
06 15.08.18 160 (Ю) 20000 м    4/0 верхняя 
[Ci fib]
+22.1 +10.8 49 +24  1019.8  0.7  747  277           
09 15.08.18 190 (Ю) 20000 м    3/1 600 м верхняя 
[Cu hum|Ci fib]
+25 +7.5 33 +25  1019.4  -0.2  747  275           
12 15.08.18 220 (ЮЗ) 20000 м    ясно 
+26.8 +7.6 30 +27  1018.5  -0.8  747  273           
15 15.08.18 210 (ЮЗ) 20000 м    ясно 
+26.2 +6.8 29 +26  1018.2  -0.3  746  273    +27.1       
18 15.08.18 280 (З) 20000 м    ясно 
+18.5 +9.5 56 +21  1019  0.2  746  280           
21 15.08.18 070 (В) 20000 м    ясно 
+15.7 +9.2 65 +17  1019.3  746  283           
00 16.08.18 320 (СЗ) 20000 м    ясно 
+15.5 +9.2 66 +17  1018.8  -0.4  746  283           
03 16.08.18 тихо ()   20000 м    ясно 
+16.1 +10.3 68 +18  1019.1  0.3  746  282  +14.4        сухая 
06 16.08.18 220 (ЮЗ) 20000 м    ясно 
+24.7 +11.8 44 +28  1018.2  -0.3  746  274           
09 16.08.18 200 (Ю) 20000 м    ясно 
+28.8 +11.2 34 +32  1017.4  -0.5  746  270           
12 16.08.18 220 (ЮЗ) 20000 м    ясно 
+30.5 +10.3 29 +32  1016.1  -1.1  745  268           
15 16.08.18 230 (ЮЗ) 20000 м    ясно 
+29.3 +12 34 +33  1015.3  -0.9  744  269    +30.6       
18 16.08.18 240 (ЮЗ) 20000 м    ясно 
+22.7 +12 51 +27  1016  0.2  744  275           
21 16.08.18 260 (З) 20000 м    ясно 
+19.7 +12.1 61 +25  1016.1  0.1  744  277           
00 17.08.18 200 (Ю) 20000 м    ясно 
+17.1 +12.2 73 +23  1016.3  744  280           
03 17.08.18 360 (С) 20000 м    8/8 600 м 
[Sc]
+16.6 +13.2 80 +23  1017  0.6  745  280  +15        сухая 
06 17.08.18 360 (С) 20000 м    9/9 600 м 
[Sc]
+20.2 +15.6 75 +30  1016.4  -0.1  745  276           
09 17.08.18 330 (СЗ) 20000 м  в посл. час ливневой дождь{гроза}  10/10 600 м 
[Sc]
+22.9 +17.5 72 +36  1017.5  1.2  746  273           
15 17.08.18 070 (В) 3{10}  20000 м    10/5 300 м верхняя 
[Sc|Cs]
+20.8 +17.1 79 +34  1017.3  0.4  745  275    +23.9     
18 17.08.18 050 (СВ) 20000 м    8/8 300 м 
[Sc]
+17.4 +14.1 81 +25  1019  1.3  746  280           
21 17.08.18 040 (СВ) 20000 м    ясно 
+14.4 +11.7 84 +19  1019.3  0.1  746  283           
Время (UTC), дата Ветер
(°,м/с) 
Видим.   Явления Облачность Т
(°С)
Тd
(°С)
f(%) Тe
(°С)
Pmin
(гПа)
dP
(гПа)
Po
(мм)
O2
(г/м3)
Тmin Tmax R s Состояние
почвы

Для получения пояснительной информации подведите курсор к названию столбца.

ПОГОДА Октябрьский Городок - архив

Всё, что Вы хотите узнать о погоде Октябрьский Городок - удобно и подробно!

Выберите нужную дату (начиная с 1 января 2015* года) и нажмите кнопку "Найти".
Будут отображены архивные сводки погоды по пункту Октябрьский Городок, начиная с указанной даты.


Отображать данные в формате CSV (для использования в таблицах Excel)


Внимание! Наш архив погоды предназначен исключительно для личного некоммерческого использования в познавательных целях. Если Вам необходимы официальные справки о состоянии погоды (для производственных, юридических, коммерческих и т.п. целей), обращайтесь в органы Росгидромета.

*Примечание: данная дата относится к архиву по метеостанциям СССР (Россия, СНГ, Балтия).
Архив по метеостанциям Зарубежной Европы и Азии (кроме Китая) хранится 10 дней, по другим регионам земного шара (Китай, Африка, Америка, Австралия, Океания) - 1 день.

Октябрьский Городок - район местоположения метеостанции


Название, широта, долгота, высота метеостанции:
Октябрьский Городок 51.6°ш. 45.4°д. 201 м над ур. моря [Российская Федерация]

Дополнительная информация

В oтличие oт бoльшинства пoгoдных сайтoв мы публикуем пoдрoбную метеoинфoрмацию в детальнoм прoфессиoнальнoм фoрмате.

Характеристики температуры и влажнoсти вoздуха измеряются на высoте 2 м в тени вдали oт зданий и деревьев.
Скoрoсть ветра измеряется на высoте 10 м (на урoвне рoста челoвека скoрoсть ветра ниже в 1.5-2 раза). Если метеoстанция нахoдится в гoрoде или в лесу, тo скoрoсть ветра занижена на 2-4 м/с пo сравнению с oткрытым местoм. Скoрoсть ветра над акватoриями крупных рек и oзёр, а также на вершинах хoлмoв на 2-5 м/с выше, чем в oбычных услoвиях.
Атмoсфернoе давление в разных тoчках местнoсти мoжет значительнo oтличаться oт давления на метеoстанции, в зависимoсти oт услoвий рельефа (при пoдъёме на 10 м давление пoнижается примернo на 1 мм рт.ст.).